AG3T Weather Reports


time (UTC)temp
C
wind
direction
speed
KPH
gust
KPH
rain 1hr
cm
rain 24hr
cm
rain mn
cm
humidity
%
barometer
mb
20260506193001 17 360 3.2 9.7 0.00 0.28 0.28 93 1007.7
20260506192500 17 360 0.0 9.7 0.00 0.28 0.28 93 1007.7
20260506192000 17 360 1.6 3.2 0.00 0.28 0.28 94 1007.8
20260506191500 17 360 0.0 4.8 0.00 0.28 0.28 95 1007.8
20260506191001 17 360 1.6 4.8 0.00 0.28 0.28 96 1007.9
20260506190500 17 360 3.2 4.8 0.00 0.28 0.28 96 1007.9
20260506190004 16 360 0.0 4.8 0.00 0.28 0.28 96 1007.9
20260506185500 16 360 1.6 3.2 0.00 0.28 0.28 97 1008.0
20260506185000 16 360 1.6 3.2 0.00 0.28 0.28 98 1008.0
20260506184500 16 360 0.0 6.4 0.00 0.28 0.28 97 1008.0
20260506184000 16 360 0.0 6.4 0.00 0.28 0.28 97 1008.1
20260506183459 16 360 0.0 8.0 0.00 0.28 0.28 97 1008.2
20260506183001 16 360 0.0 8.0 0.03 0.28 0.28 96 1008.3
20260506182500 16 360 1.6 4.8 0.03 0.28 0.28 96 1008.3
20260506182000 15 360 4.8 4.8 0.03 0.28 0.28 97 1008.4
20260506181000 15 360 0.0 6.4 0.03 0.28 0.28 97 1008.4
20260506180459 15 360 1.6 4.8 0.03 0.28 0.28 97 1008.4
20260506180001 15 360 0.0 4.8 0.03 0.28 0.28 97 1008.5
20260506174959 15 360 0.0 4.8 0.03 0.28 0.28 97 1008.5
20260506174003 15 360 0.0 3.2 0.03 0.28 0.28 97 1008.5
20260506173459 15 360 0.0 3.2 0.00 0.25 0.25 97 1008.5
20260506172959 15 360 0.0 9.7 0.00 0.25 0.25 97 1008.5
20260506172459 15 360 1.6 9.7 0.00 0.25 0.25 97 1008.5
20260506171458 15 360 0.0 3.2 0.00 0.25 0.25 97 1008.4
20260506170958 15 360 3.2 3.2 0.00 0.25 0.25 97 1008.5
20260506170458 15 360 0.0 3.2 0.00 0.25 0.25 97 1008.5
20260506170002 15 360 1.6 3.2 0.00 0.25 0.25 97 1008.5
20260506165458 15 360 1.6 3.2 0.03 0.25 0.25 97 1008.6
20260506164959 15 360 0.0 3.2 0.03 0.25 0.25 97 1008.7
20260506163459 15 360 0.0 4.8 0.05 0.25 0.25 96 1008.7
20260506162458 16 360 0.0 3.2 0.08 0.25 0.25 97 1008.8
20260506161459 15 360 0.0 4.8 0.10 0.25 0.25 97 1008.7
20260506160001 15 360 1.6 6.4 0.13 0.23 0.23 97 1008.3
20260506155458 15 360 0.0 8.0 0.13 0.23 0.23 97 1008.6
20260506154959 15 360 0.0 8.0 0.13 0.23 0.23 97 1009.0
20260506154458 15 360 1.6 4.8 0.10 0.20 0.20 97 1009.3
20260506153959 15 360 0.0 3.2 0.10 0.20 0.20 97 1009.5
20260506153459 15 360 0.0 3.2 0.13 0.20 0.20 97 1009.5
20260506153000 15 360 3.2 3.2 0.10 0.18 0.18 97 1009.6
20260506151959 16 360 0.0 3.2 0.10 0.15 0.15 96 1009.8
20260506151459 16 360 0.0 3.2 0.10 0.15 0.15 96 1009.7
20260506150959 16 360 0.0 3.2 0.13 0.15 0.15 96 1009.7
20260506150458 16 360 0.0 3.2 0.13 0.13 0.13 96 1009.8
20260506145459 16 360 0.0 4.8 0.10 0.10 0.10 95 1009.8
20260506145000 16 360 1.6 3.2 0.10 0.10 0.10 95 1009.7
20260506144459 16 360 0.0 3.2 0.10 0.10 0.10 95 1009.8
20260506143959 16 360 0.0 3.2 0.10 0.10 0.10 95 1009.7
20260506143459 16 360 0.0 3.2 0.08 0.08 0.08 95 1009.6
20260506142959 16 360 0.0 3.2 0.08 0.08 0.08 95 1009.6
20260506142459 16 360 0.0 3.2 0.05 0.05 0.05 94 1009.5
20260506141959 16 360 0.0 3.2 0.05 0.05 0.05 94 1009.4
20260506141459 16 360 0.0 3.2 0.05 0.05 0.05 94 1009.5
20260506140959 16 360 0.0 3.2 0.03 0.03 0.03 94 1009.4
20260506140459 16 360 0.0 3.2 0.00 0.00 0.00 93 1009.5
20260506134458 16 360 0.0 3.2 0.00 0.00 0.00 91 1009.4
20260506133959 16 360 0.0 1.6 0.00 0.00 0.00 91 1009.4
20260506133458 16 360 0.0 3.2 0.00 0.00 0.00 91 1009.4
20260506132959 16 360 0.0 3.2 0.00 0.00 0.00 90 1009.6
20260506132000 16 360 0.0 3.2 0.00 0.00 0.00 90 1009.7
20260506131459 16 360 0.0 3.2 0.00 0.00 0.00 90 1009.7
20260506130959 16 360 0.0 3.2 0.00 0.00 0.00 89 1009.7
20260506130458 17 360 0.0 3.2 0.00 0.00 0.00 88 1009.8
20260506130002 17 360 3.2 3.2 0.00 0.00 0.00 88 1009.8
20260506125458 17 360 0.0 3.2 0.00 0.00 0.00 88 1009.8
20260506124959 17 360 0.0 3.2 0.00 0.00 0.00 87 1009.8
20260506124459 17 360 0.0 4.8 0.00 0.00 0.00 87 1009.8
20260506123459 17 360 3.2 3.2 0.00 0.00 0.00 87 1009.9
20260506121959 17 360 0.0 3.2 0.00 0.00 0.00 85 1009.7
20260506121458 17 360 0.0 3.2 0.00 0.00 0.00 84 1009.9
20260506121000 17 360 0.0 3.2 0.00 0.00 0.00 84 1009.7
20260506120001 17 360 0.0 3.2 0.00 0.00 0.00 83 1009.5
20260506115458 17 360 0.0 6.4 0.00 0.00 0.00 82 1009.5
20260506114458 17 360 3.2 4.8 0.00 0.00 0.00 81 1009.4
20260506113959 17 360 3.2 4.8 0.00 0.00 0.00 81 1009.5
20260506112959 17 360 0.0 3.2 0.00 0.00 0.00 80 1009.3
20260506112458 17 360 1.6 8.0 0.00 0.00 0.00 80 1009.2
20260506111959 17 360 1.6 6.4 0.00 0.00 0.00 80 1009.3
20260506111458 18 360 0.0 6.4 0.00 0.00 0.00 80 1009.1
20260506110959 18 360 0.0 12.9 0.00 0.00 0.00 80 1009.3
20260506110458 18 360 0.0 12.9 0.00 0.00 0.00 79 1009.2
20260506110001 18 360 0.0 8.0 0.00 0.00 0.00 80 1009.2
20260506105458 18 360 0.0 8.0 0.00 0.00 0.00 80 1009.3
20260506104959 -17 0.0 0.0 0.00 0.00 0.00 1009.0
20260506104458 -17 0.0 0.0 0.00 0.00 0.00 1008.9
20260506103959 -17 0.0 0.0 0.00 0.00 0.00 1008.7
20260506103458 -17 0.0 0.0 0.00 0.00 0.00 1008.9
20260506103000 -17 0.0 0.0 0.00 0.00 0.00 1008.9
20260506101959 -17 0.0 0.0 0.00 0.00 0.00 1008.6
20260506101458 -17 0.0 0.0 0.00 0.00 0.00 1008.6
20260506100959 -17 0.0 0.0 0.00 0.00 0.00 1008.6
20260506100458 -17 0.0 0.0 0.00 0.00 0.00 1008.5
20260506094958 -17 0.0 0.0 0.00 0.00 0.00 1008.6
20260506094459 -17 0.0 0.0 0.00 0.00 0.00 1008.6
20260506093959 -17 0.0 0.0 0.00 0.00 0.00 1008.8
20260506092958 -17 0.0 0.0 0.00 0.00 0.00 1008.6
20260506092458 -17 0.0 0.0 0.00 0.00 0.00 1008.7
20260506091959 -17 0.0 0.0 0.00 0.00 0.00 1008.6
20260506091458 -17 0.0 0.0 0.00 0.00 0.00 1008.6
20260506090959 -17 0.0 0.0 0.00 0.00 0.00 1008.6
20260506090458 -17 0.0 0.0 0.00 0.00 0.00 1008.6
20260506090000 -17 0.0 0.0 0.00 0.00 0.00 1008.7
20260506085458 -17 0.0 0.0 0.00 0.00 0.00 1008.7
20260506084959 -17 0.0 0.0 0.00 0.00 0.00 1008.7
20260506083458 -17 0.0 0.0 0.00 0.00 0.00 1008.7
20260506082959 -17 0.0 0.0 0.00 0.00 0.00 1008.8
20260506082458 -17 0.0 0.0 0.00 0.00 0.00 1008.8
20260506081458 -17 0.0 0.0 0.00 0.00 0.00 1008.9
20260506080959 -17 0.0 0.0 0.00 0.00 0.00 1008.8
20260506080458 -17 0.0 0.0 0.00 0.00 0.00 1008.9
20260506073458 -17 0.0 0.0 0.00 0.00 0.00 1008.9
20260506072458 -17 0.0 0.0 0.00 0.00 0.00 1008.9
20260506071959 -17 0.0 0.0 0.00 0.00 0.00 1008.9
20260506071458 -17 0.0 0.0 0.00 0.00 0.00 1009.1
20260506070959 -17 0.0 0.0 0.00 0.00 0.00 1009.0
20260506070458 -17 0.0 0.0 0.00 0.00 0.00 1009.0
20260506062458 20 360 1.6 4.8 0.00 0.00 0.00 65 1009.3
20260506061959 20 360 0.0 6.4 0.00 0.00 0.00 64 1009.4
20260506061458 20 360 3.2 6.4 0.00 0.00 0.00 64 1009.5
20260506060959 20 360 1.6 4.8 0.00 0.00 0.00 64 1009.4
20260506060458 20 360 3.2 6.4 0.00 0.00 0.00 64 1009.5
20260506050958 20 360 1.6 9.7 0.00 0.00 0.00 62 1009.8
20260506050458 20 360 1.6 3.2 0.00 0.00 0.00 62 1010.0
20260506044959 20 360 1.6 6.4 0.00 0.00 0.00 61 1010.0
20260506044000 20 360 12.9 16.1 0.00 0.00 0.00 61 1010.0
20260506043500 20 360 0.0 6.4 0.00 0.00 0.00 61 1010.1
20260506043000 20 360 0.0 6.4 0.00 0.00 0.00 61 1010.0
20260506042500 20 360 0.0 4.8 0.00 0.00 0.00 61 1010.1
20260506042000 20 360 1.6 8.0 0.00 0.00 0.00 60 1010.1
20260506041000 20 360 0.0 6.4 0.00 0.00 0.00 61 1010.2
20260506040500 20 360 1.6 3.2 0.00 0.00 0.00 60 1010.1
20260506040004 20 360 0.0 4.8 0.00 0.00 0.00 61 1010.3
20260506035500 20 360 0.0 4.8 0.00 0.00 0.00 61 1010.2
20260506034500 20 360 0.0 4.8 0.00 0.00 0.00 61 1010.2
20260506033500 20 360 0.0 4.8 0.00 0.00 0.00 60 1010.3
20260506033000 20 360 0.0 3.2 0.00 0.00 0.00 61 1010.2
20260506032500 20 360 0.0 3.2 0.00 0.00 0.00 60 1010.2
20260506032000 20 360 3.2 3.2 0.00 0.00 0.00 60 1010.3
20260506031500 20 360 0.0 4.8 0.00 0.00 0.00 59 1010.2
20260506031001 20 360 0.0 4.8 0.00 0.00 0.00 60 1010.1
20260506030500 20 360 0.0 3.2 0.00 0.00 0.00 60 1010.3
20260506030004 20 360 0.0 3.2 0.00 0.00 0.00 59 1010.2
20260506025500 20 360 0.0 3.2 0.00 0.00 0.00 59 1010.2
20260506025001 20 360 0.0 3.2 0.00 0.00 0.00 60 1010.2
20260506024001 20 360 0.0 3.2 0.00 0.00 0.00 58 1010.2
20260506023500 20 360 0.0 3.2 0.00 0.00 0.00 58 1010.2
20260506023004 20 360 0.0 8.0 0.00 0.00 0.00 58 1010.1
20260506022501 20 360 0.0 8.0 0.00 0.00 0.00 58 1010.0
20260506022001 20 360 0.0 4.8 0.00 0.00 0.00 58 1010.1
20260506021500 20 360 0.0 4.8 0.00 0.00 0.00 58 1010.1
20260506021000 20 360 0.0 4.8 0.00 0.00 0.00 58 1010.2
20260506020500 21 360 0.0 4.8 0.00 0.00 0.00 58 1010.1
20260506020004 21 360 0.0 3.2 0.00 0.00 0.00 57 1010.2
20260506015500 21 360 0.0 3.2 0.00 0.00 0.00 57 1010.1
20260506015001 21 360 0.0 3.2 0.00 0.00 0.00 57 1010.0
20260506014001 21 360 0.0 3.2 0.00 0.00 0.00 55 1010.0
20260506013500 21 360 0.0 3.2 0.00 0.00 0.00 55 1009.9
20260506013000 21 360 0.0 4.8 0.00 0.00 0.00 55 1009.9
20260506012500 21 360 0.0 4.8 0.00 0.00 0.00 55 1009.8
20260506012000 22 360 0.0 3.2 0.00 0.00 0.00 54 1009.8
20260506011500 22 360 1.6 6.4 0.00 0.00 0.00 53 1009.7
20260506011001 22 360 0.0 6.4 0.00 0.00 0.00 52 1009.6
20260506010500 22 360 0.0 3.2 0.00 0.00 0.00 51 1009.7
20260506010004 22 360 1.6 6.4 0.00 0.00 0.00 50 1009.6
20260506005501 22 360 0.0 6.4 0.00 0.00 0.00 50 1009.4
20260506005001 22 360 0.0 3.2 0.00 0.00 0.00 49 1009.3
20260506004500 23 360 0.0 4.8 0.00 0.00 0.00 49 1009.3
20260506004004 23 360 0.0 3.2 0.00 0.00 0.00 49 1009.3
20260506002500 23 360 1.6 4.8 0.00 0.00 0.00 47 1009.0
20260506002000 23 360 0.0 4.8 0.00 0.00 0.00 48 1009.0
20260506001500 23 360 0.0 8.0 0.00 0.00 0.00 48 1009.0
20260506001000 23 360 6.4 8.0 0.00 0.00 0.00 48 1009.0
20260506000500 23 360 0.0 17.7 0.00 0.00 0.00 48 1008.9
20260505235500 23 360 0.0 8.0 0.00 0.00 0.00 48 1008.8
20260505234500 23 360 0.0 4.8 0.00 0.00 0.00 49 1008.9
20260505233500 24 360 0.0 3.2 0.00 0.00 0.00 49 1008.8
20260505233000 24 360 0.0 6.4 0.00 0.00 0.00 49 1008.7
20260505232500 24 360 0.0 6.4 0.00 0.00 0.00 48 1008.6
20260505231500 25 360 0.0 4.8 0.00 0.00 0.00 48 1008.6
20260505231000 25 360 0.0 9.7 0.00 0.00 0.00 47 1008.7
20260505230459 25 360 0.0 14.5 0.00 0.00 0.00 47 1008.6
20260505230004 25 360 0.0 14.5 0.00 0.00 0.00 45 1008.5
20260505225459 25 360 0.0 9.7 0.00 0.00 0.00 46 1008.6
20260505225000 25 360 0.0 6.4 0.00 0.00 0.00 45 1008.6
20260505224500 25 360 3.2 4.8 0.00 0.00 0.00 44 1008.7
20260505224001 25 360 0.0 6.4 0.00 0.00 0.00 45 1008.6
20260505223500 25 360 3.2 8.0 0.00 0.00 0.00 45 1008.7
20260505223000 25 360 0.0 8.0 0.00 0.00 0.00 44 1008.6
20260505222500 25 360 3.2 19.3 0.00 0.00 0.00 44 1008.6
20260505222000 26 360 1.6 19.3 0.00 0.00 0.00 43 1008.6
20260505221501 26 360 0.0 12.9 0.00 0.00 0.00 43 1008.6
20260505220459 26 360 3.2 6.4 0.00 0.00 0.00 43 1008.5
20260505220006 26 360 3.2 11.3 0.00 0.00 0.00 42 1008.4
20260505215459 26 348 3.2 11.3 0.00 0.00 0.00 42 1008.4
20260505214459 26 360 3.2 12.9 0.00 0.00 0.00 42 1008.4
20260505214000 26 360 1.6 8.0 0.00 0.00 0.00 43 1008.3
20260505213459 26 360 0.0 14.5 0.00 0.00 0.00 43 1008.4
20260505213000 26 360 0.0 14.5 0.00 0.00 0.00 43 1008.4
20260505212500 26 159 8.0 14.5 0.00 0.00 0.00 41 1008.4
20260505212000 26 185 1.6 14.5 0.00 0.00 0.00 43 1008.3
20260505211500 26 248 6.4 19.3 0.00 0.00 0.00 44 1008.2
20260505211001 27 58 0.0 19.3 0.00 0.00 0.00 40 1008.2
20260505210500 27 140 3.2 12.9 0.00 0.00 0.00 43 1008.1
20260505210006 27 263 1.6 12.9 0.00 0.00 0.00 42 1008.2
20260505205459 27 257 0.0 4.8 0.00 0.00 0.00 43 1008.2
20260505205000 27 23 3.2 8.0 0.00 0.00 0.00 43 1008.1
20260505204500 27 223 3.2 14.5 0.00 0.00 0.00 46 1008.2
20260505203500 27 312 1.6 9.7 0.00 0.00 0.00 44 1008.4
20260505203000 27 164 0.0 16.1 0.00 0.00 0.00 43 1008.3
20260505202500 27 234 8.0 20.9 0.00 0.00 0.00 43 1008.4
20260505202000 27 231 1.6 20.9 0.00 0.00 0.00 41 1008.5
20260505201459 27 157 0.0 14.5 0.00 0.00 0.00 42 1008.3
20260505201001 27 175 0.0 11.3 0.00 0.00 0.00 43 1008.5
20260505195459 27 257 6.4 11.3 0.00 0.00 0.00 43 1008.5
20260505195005 27 185 4.8 8.0 0.00 0.00 0.00 45 1008.6
20260505194459 27 76 1.6 17.7 0.00 0.00 0.00 45 1008.7
20260505193459 27 134 3.2 11.3 0.00 0.00 0.00 44 1008.7